sat.trackr.live / text

‹ back to catalog

STARLINK-32886

NORAD 62807 · 2025-018B

PAYLOAD ACTIVE UNKNOWN

§ Identity

Operator
Country
US
Launch date
2025-01-24
Launch site
AFWTR
Launch vehicle
Mass (kg)
RCS (m²)

Purposes: comms

External: N2YO · Heavens-Above · Gunter

§ Orbital elements

Epoch: 2026-05-25T04:46:12.088128Z

Period
94.11 min
Inclination
53.1592°
Eccentricity
0.0001662
Mean motion
15.30205093 rev/d
Perigee alt
474.1 km
Apogee alt
476.3 km
Semi-major
6,853.3 km
B*
7.2810e-4
RAAN
314.1204°
Arg perigee
104.7180°
Mean anomaly
255.4005°
Rev number
7,489

§ Raw data

STARLINK-328861 62807U 25018B   26145.19875102  .00021270  00000+0  72810-3 0  99922 62807  53.1592 314.1204 0001662 104.7180 255.4005 15.30205093 74898

JSON: /api/v1/satellites/62807 · /tle

For live sub-satellite position, see the globe view (requires WebGL).

§ Visibility from observer

Set your observer location to see the next 7 days of passes ≥ 10°. The values pass through the URL so the page stays shareable.

No JS? Fill the form by hand. The geolocation button needs JavaScript.